Weather in Krasnyy Oktyabr

Russia / Oryol Oblast     52°54′34″N   37°43′54″E
temp.,
°C
wind,
m/s
gust,
m/s
humid.,
%
clouds,
%
prec.,
mm/h
press.,
hPa
HPBL,
m
16 october, sat
sat1600:00+6sw5127371 0.0 1021385
03:00+4ssw5117992 0.0 1021257
06:00+4ssw51180100 0.0 1020239
09:00+6ssw511705 0.0 1020337
12:00+10ssw7115176 0.0 1019858
15:00+12sw6114694 0.0 10171235
18:00+9sw5115758 0.0 1016333
21:00+7wsw511661 0.0 1017322
17 october, sun
sun1700:00+7wsw497795 0.0 1017282
03:00+6wsw368321 0.0 1017210
06:00+4w339484 0.0 101754
09:00+6wsw3584100 0.0 1018183
12:00+10wsw466384 0.0 1017656
15:00+11w565526 0.0 10151048
18:00+8wsw367371 0.0 1016122
21:00+6wsw378169 0.0 1016165
18 october, mon
mon1800:00+5wsw3982100 0.0 1016236
03:00+5wsw497599 0.0 1015227
06:00+4wsw4107792 0.0 1015208
09:00+6wsw5107199 0.0 1015396
12:00+9w7960100 0.0 10141108
15:00+9w5861100 0.0 10131396
18:00+8w5869100 0.0 1013920
21:00+6wnw4787100 0.4 10131122
19 october, tue
tue1900:00+5wnw4777100 0.3 1013378
03:00+3wnw3788100 0.3 1014229
06:00+2wnw48870 0.0 1015229
09:00+3wnw59782 0.0 1015386
12:00+5nw676995 0.0 10161007
15:00+3nw6880100 0.1 1017902
18:00+2nw587299 0.1 1019883
21:00+2nw597499 0.2 1020599
20 october, wed
wed2000:00+2nw51082100 0.1 1021483
03:000nw410915 0.2 1022333
06:00−1wnw389534 0.0 1024217
09:00+1nw478497 0.0 1025353
12:00+4wnw456994 0.0 1025985
15:00+5w4657100 0.1 10241267
18:00+3sw346999 0.0 102453
21:00+2sw4970100 0.0 1022263